Station CLKN7 - Cape Lookout, NC Image indicating link to RSS feed of recent meteorological observations for station CLKN7


Conditions at CLKN7 as of
(9:00 pm EDT on 05/18/2024)
0100 GMT on 05/19/2024:
     

Click on the graph icon in the table below to see a time series plot of the last five days of that observation.

5-day plot - Wind Direction Wind Direction (WDIR):WSW ( 240 deg true )
5-day plot - Wind Speed Wind Speed (WSPD): 4 kts
5-day plot - Wind Gust Wind Gust (GST): 7 kts
5-day plot - Atmospheric Pressure Atmospheric Pressure (PRES):29.86 in
5-day plot - Pressure Tendency Pressure Tendency (PTDY):-0.01 in ( Falling )
5-day plot - Air Temperature Air Temperature (ATMP): 72.0 °F
5-day plot - Wind Speed at 10 Meters Wind Speed at 10 meters (WSPD10M): 4 kts
5-day plot - Wind Speed at 20 Meters Wind Speed at 20 meters (WSPD20M): 4 kts
5-day plot -  Wind Speed, Wind Gust and Atmospheric Pressure Combined plot of Wind Speed, Gust, and Air Pressure
Continuous Winds
TIME
(EDT)
5-day plot - Wind Direction WDIR 5-day plot - Wind Speed WSPD
9:00 pmSW ( 232 deg ) 4 kts
8:50 pmSW ( 216 deg ) 6 kts
8:40 pmSW ( 227 deg ) 4 kts
8:30 pmSW ( 215 deg ) 5 kts
8:20 pmSW ( 233 deg ) 4 kts
8:10 pmSW ( 231 deg ) 5 kts
 
Peak gust during the measurement hour
TIME
(EDT)
5-day plot - Gust Direction GDR 5-day plot - Gust Speed GST
8:44 pmSSW ( 210 deg ) 8 kts
Previous observations
TIME
(EDT)
5-day plot - Wind Direction
WDIR
 
5-day plot - Wind Speed
WSPD
kts
5-day plot - Wind Gust
GST
kts
5-day plot - Wave Height
WVHT
ft
5-day plot - Dominant Wave Period
DPD
sec
5-day plot - Average Wave Period
APD
sec
5-day plot - Mean Wave Direction
MWD
 
5-day plot - Atmospheric Pressure
PRES
in
5-day plot - Pressure Tendency
PTDY
in
5-day plot - Air Temperature
ATMP
°F
5-day plot - Water Temperature
WTMP
°F
5-day plot - Dew Point
DEWP
°F
5-day plot - Salinity
SAL
psu
5-day plot - Visibility
VIS
nmi
5-day plot - Tide (above MLLW)
TIDE
ft
2024-05-18 08:00 pmWSW 6 8----29.83-0.03 72.1-----
2024-05-18 07:00 pm SW 5 6----29.83-0.04 72.9-----
2024-05-18 06:00 pm SW 9 13----29.87-0.02 73.6-----
2024-05-18 05:00 pm SW 10 13----29.86-0.04 73.9-----
2024-05-18 04:00 pm SW 12 15----29.87-0.04 72.9-----
2024-05-18 03:00 pm SW 10 13----29.89-0.03 76.1-----
2024-05-18 02:00 pmSSW 9 11----29.90-0.02 75.7-----
2024-05-18 01:00 pmSSE 8 8----29.91-0.03 73.8-----
2024-05-18 12:00 pmSSW 6 7----29.93-0.02 77.0-----
2024-05-18 11:00 amWSW 6 8----29.92-0.01 74.8-----
2024-05-18 10:00 am S 6 8----29.93+0.00 73.0-----
2024-05-18 09:00 amSSW 4 5----29.94+0.03 73.6-----
2024-05-18 08:00 am SW 4 5----29.94+0.03 73.8-----
2024-05-18 07:00 amWSW 4 6----29.93+0.00 72.9-----
2024-05-18 06:00 am E 13 14----29.92-0.02 67.6-----
2024-05-18 05:00 am E 16 18----29.91-0.04 66.4-----
2024-05-18 04:00 amENE 15 17----29.93-0.05 65.7-----
2024-05-18 03:00 amENE 13 15----29.94-0.05 66.0-----
2024-05-18 02:00 am E 15 16----29.94-0.05 65.7-----
2024-05-18 01:00 am E 11 13----29.98+0.00 65.7-----
2024-05-18 12:00 am E 14 15----29.99+0.02 65.3-----
2024-05-17 11:00 pm E 13 14----29.99+0.03 65.3-----
2024-05-17 10:00 pmENE 14 16----29.98+0.03 64.9-----